Regional Weather Roundup
Issued by NWS Cleveland, OH

Home | Current Version | Previous Version | Graphics & Text | Print | Product List | Glossary On
Versions: 1 2 3 4 5 6 7 8 9 10 11 12 13 14 15 16 17 18 19 20 21 22 23 24 25 26 27 28 29 30 31 32 33 34 35 36 37 38 39 40 41 42 43 44 45 46 47 48 49 50
000
ASUS41 KCLE 261210
RWRCLE
OHIO REGIONAL WEATHER ROUNDUP
NATIONAL WEATHER SERVICE WILMINGTON, OH
800 AM EDT THU MAY 26 2016

NOTE: "FAIR" INDICATES FEW OR NO CLOUDS BELOW 12,000 FEET WITH NO
SIGNIFICANT WEATHER AND/OR OBSTRUCTIONS TO VISIBILITY.

OHZ001>008-015>018-024>027-034-035-043-044-261300-
   NORTHWEST OHIO

CITY           SKY/WX    TMP DP  RH WIND       PRES   REMARKS
DEFIANCE       PTSUNNY   70  63  78 S8        30.00S
FINDLAY        FAIR      70  60  70 SW10      30.02R
TOLEDO EXPRESS CLOUDY    69  62  78 SW7       29.99S
TOLEDO EXEC    PTSUNNY   70  62  76 SW10      30.01R
LIMA           FAIR      67  62  84 SW8       30.04R
$$

OHZ009>014-019>023-028>033-038-089-261300-
   NORTHEAST OHIO

CITY           SKY/WX    TMP DP  RH WIND       PRES   REMARKS
CLE-HOPKINS    PTSUNNY   70  61  73 S9        30.06R
CLE-LAKEFRONT  FAIR      71  61  70 S10       30.02S
CUY CO. ARPT   PTSUNNY   72  64  78 SW12      30.05S
LORAIN-ELYRIA  FAIR      68  61  78 S10       30.04R
ASHTABULA      FAIR      70  61  73 S9        30.06F
AKRON-CANTON   PTSUNNY   68  60  75 S8        30.07F
WOOSTER        FAIR      67  62  84 S9        30.08R
MANSFIELD      FAIR      68  63  84 S9        30.06S
YOUNGSTOWN     PTSUNNY   69  59  70 S8        30.08S
$$

OHZ042-051>053-060>062-070>072-077>081-261300-
  SOUTHWEST OHIO

CITY           SKY/WX    TMP DP  RH WIND       PRES   REMARKS
CINC-COVINGTON PTSUNNY   67  63  87 S8        30.09R
CINC-LUNKEN    PTSUNNY   67  65  93 S3        30.09S
HAMILTON       FAIR      70  63  78 SW5       30.08S
DAYTON         PTSUNNY   67  63  87 SW10      30.07R
WRIGHT-PAT AFB CLOUDY    69  65  88 SW9       30.06R
DAYTON GENERAL CLOUDY    67  61  81 SW7       30.07R
WILMINGTON     PTSUNNY   67  63  87 S9        30.08R
$$

OHZ036-037-039>041-045>050-054>059-063>069-073>076-082>088-261300-
  CENTRAL AND SOUTHEAST OHIO

CITY           SKY/WX    TMP DP  RH WIND       PRES   REMARKS
COLUMBUS       CLOUDY    68  62  81 S5        30.06S
OSU AIRPORT    FAIR      68  63  84 S7        30.06R
BOLTON FIELD   SUNNY     66  64  94 S7        30.07S
RICKENBACK AFB FAIR      68  62  82 S8        30.06S
NEWARK         FAIR      69  62  78 S5        30.07S
MARION           N/A    N/A N/A N/A MISG      30.05S
LANCASTER      FAIR      69  62  78 SE7       30.08S
ZANESVILLE     FAIR      70  62  76 S8        30.10S
NEW PHILLY     FAIR      71  61  70 S5        30.09S
$$




USA.gov is the U.S. government's official web portal to all federal, state and local government web resources and services.